TimeAKDT,TemperatureF,Dew PointF,Humidity,Sea Level PressureIn,VisibilityMPH,Wind Direction,Wind SpeedMPH,Gust SpeedMPH,PrecipitationIn,Events,Conditions,WindDirDegrees,DateUTC
12:21 AM,33.8,32.0,93,30.47,0.5,NNE,6.9,-,N/A,Fog,Fog,20,2013-06-17 08:21:00
12:26 AM,33.8,32.0,93,30.47,0.2,North,8.1,-,N/A,Fog,Fog,10,2013-06-17 08:26:00
12:41 AM,32.0,32.0,100,30.47,0.2,North,8.1,-,N/A,Fog,Fog,10,2013-06-17 08:41:00
12:53 AM,32.0,32.0,100,30.48,0.2,NNE,6.9,-,N/A,Fog,Fog,30,2013-06-17 08:53:00
1:15 AM,33.8,32.0,93,30.47,0.8,NE,5.8,-,N/A,,Overcast,40,2013-06-17 09:15:00
1:50 AM,33.8,33.8,100,30.48,0.2,ENE,4.6,-,N/A,Fog,Fog,60,2013-06-17 09:50:00
1:53 AM,33.1,33.1,100,30.48,0.2,ENE,5.8,-,N/A,Fog,Fog,70,2013-06-17 09:53:00
2:07 AM,32.0,32.0,100,30.48,0.2,East,5.8,-,N/A,Fog,Fog,100,2013-06-17 10:07:00
2:20 AM,32.0,32.0,100,30.48,0.2,ESE,5.8,-,N/A,Fog,Fog,110,2013-06-17 10:20:00
2:51 AM,32.0,30.2,93,30.47,0.2,East,4.6,-,N/A,Fog,Fog,100,2013-06-17 10:51:00
2:53 AM,32.0,30.9,96,30.48,0.2,East,4.6,-,N/A,Fog,Fog,100,2013-06-17 10:53:00
3:41 AM,32.0,30.2,93,30.47,0.2,SSE,5.8,-,N/A,Fog,Fog,150,2013-06-17 11:41:00
3:53 AM,32.0,32.0,100,30.48,0.2,SSE,5.8,-,N/A,Fog,Fog,150,2013-06-17 11:53:00
4:22 AM,32.0,32.0,100,30.47,0.2,ESE,5.8,-,N/A,Fog,Fog,120,2013-06-17 12:22:00
4:53 AM,32.0,32.0,100,30.47,0.2,SE,3.5,-,N/A,Fog,Fog,140,2013-06-17 12:53:00
5:12 AM,32.0,30.2,93,30.47,0.2,ESE,5.8,-,N/A,Fog,Fog,120,2013-06-17 13:12:00
5:36 AM,32.0,32.0,100,30.46,0.2,ESE,3.5,-,N/A,Fog,Fog,110,2013-06-17 13:36:00
5:53 AM,32.0,32.0,100,30.46,0.2,East,3.5,-,N/A,Fog,Fog,100,2013-06-17 13:53:00
6:20 AM,33.8,33.8,100,30.45,0.2,SSE,3.5,-,N/A,Fog,Fog,150,2013-06-17 14:20:00
6:30 AM,33.8,33.8,100,30.45,0.2,East,4.6,-,N/A,Fog,Fog,100,2013-06-17 14:30:00
6:53 AM,33.1,32.0,96,30.46,0.2,SE,3.5,-,N/A,Fog,Fog,130,2013-06-17 14:53:00
7:53 AM,34.0,34.0,100,30.45,0.5,East,5.8,-,N/A,Fog,Fog,100,2013-06-17 15:53:00
8:53 AM,36.0,35.1,97,30.44,0.8,East,4.6,-,N/A,,Overcast,100,2013-06-17 16:53:00
9:18 AM,37.4,35.6,93,30.44,5.0,East,5.8,-,N/A,,Overcast,90,2013-06-17 17:18:00
9:53 AM,37.9,36.0,93,30.44,10.0,East,4.6,-,N/A,,Mostly Cloudy,80,2013-06-17 17:53:00
10:13 AM,39.2,35.6,87,30.43,9.0,East,5.8,-,N/A,,Scattered Clouds,90,2013-06-17 18:13:00
10:53 AM,42.1,37.0,82,30.43,10.0,East,6.9,-,N/A,,Scattered Clouds,90,2013-06-17 18:53:00
11:53 AM,44.1,37.0,76,30.43,10.0,ENE,6.9,-,N/A,,Scattered Clouds,70,2013-06-17 19:53:00
12:53 PM,46.0,37.9,73,30.43,10.0,ENE,8.1,-,N/A,,Scattered Clouds,70,2013-06-17 20:53:00
1:53 PM,48.0,37.9,68,30.43,10.0,ENE,9.2,-,N/A,,Scattered Clouds,70,2013-06-17 21:53:00
2:53 PM,48.0,37.0,66,30.42,10.0,ENE,10.4,-,N/A,,Scattered Clouds,60,2013-06-17 22:53:00
3:53 PM,48.9,37.9,66,30.41,10.0,East,11.5,-,N/A,,Scattered Clouds,90,2013-06-17 23:53:00
4:53 PM,48.0,37.0,66,30.40,10.0,ENE,10.4,-,N/A,,Scattered Clouds,70,2013-06-18 00:53:00
5:53 PM,48.0,37.0,66,30.39,10.0,ENE,11.5,-,N/A,,Scattered Clouds,60,2013-06-18 01:53:00
6:53 PM,46.0,36.0,68,30.38,10.0,ENE,13.8,-,N/A,,Scattered Clouds,70,2013-06-18 02:53:00
7:53 PM,45.0,36.0,71,30.38,10.0,ENE,12.7,-,N/A,,Scattered Clouds,70,2013-06-18 03:53:00
8:53 PM,43.0,34.0,71,30.37,10.0,ENE,12.7,-,N/A,,Clear,70,2013-06-18 04:53:00
9:53 PM,42.1,34.0,73,30.36,10.0,East,11.5,-,N/A,,Scattered Clouds,80,2013-06-18 05:53:00
10:53 PM,41.0,34.0,76,30.35,10.0,ENE,12.7,-,N/A,,Scattered Clouds,70,2013-06-18 06:53:00
11:53 PM,39.0,34.0,82,30.35,10.0,East,10.4,-,N/A,,Scattered Clouds,80,2013-06-18 07:53:00